Regional Weather Roundup
Issued by NWS

Home | Current Version | Previous Version | Text Only | Print | Product List | Glossary On
Versions: 1 2 3 4 5 6 7 8 9 10 11 12 13 14 15 16 17 18 19 20 21 22 23 24 25 26 27 28
000
ASUS42 KKEY 190810
RWRKEY

FLORIDA REGIONAL WEATHER ROUNDUP FOR THE FLORIDA KEYS
NATIONAL WEATHER SERVICE KEY WEST FLORIDA
400 AM EDT SAT AUG 19 2017

...SOUTH FLORIDA AND THE KEYS...

CITY           SKY/WX    TMP DP  RH WIND       PRES   REMARKS
FORT MYERS     CLEAR     76  75  97 CALM      29.97F
SW REGIONAL AP CLEAR     75  73  93 N3        29.97F
NAPLES         CLEAR     75  73  93 CALM      29.97F
MIAMI          MOCLDY    82  74  76 NE3       29.96F
WEST KENDALL   MOCLDY    78  73  84 NE5       29.95F
HOMESTEAD      PTCLDY    80  76  87 N5        29.95F
MARATHON       CLEAR     85  76  74 E8        29.93F HX  94
BOCA CHICA NAS CLEAR     82  78  88 SE13      29.93F HX  91
KEY WEST INTL  CLEAR     83  76  79 E10       29.94F HX  91

...INTERNATIONAL WEATHER...

CITY           SKY/WX    TMP DP  RH WIND       PRES   REMARKS
NASSAU BAHAMAS TSTM      79  77  94 CALM      29.97F
CANCUN MEXICO  PTCLDY    75  75 100 CALM      29.95F
COZUMEL MEXICO PTCLDY    75  73  94 CALM      29.93F

ADJACENT COASTAL WATERS...

STATION/POSITION TIME  SKY/WX   TEMP    WIND        PRES    WAVE
                                AIR SEA DIR/SP/G            HT/PER
                 (UTC)          (F)     (DEG/KT/KT) (MB)    (FT/S)
PULASKI SHOAL LI 0800            85     110/ 11/ 12 1014.3F
SAND KEY         0750            83                 1014.4F
LONG KEY         NOT AVBL
MOLASSES REEF    NOT AVBL
FOWEY ROCKS      0700            85 88   70/ 10/ 11 1015.6F
Buoy 42097       0730               88                N/A     1/ 3

$$




USA.gov is the U.S. government's official web portal to all federal, state and local government web resources and services.